Weather History for Wichita Falls, TX

Change the Weather History Date:

Sunday, January 12, 2014

  Actual Average Record
Temperature  
Mean Temperature 60 °F 42 °F  
Max Temperature 80 °F 54 °F 80 °F (2006)
Min Temperature 39 °F 30 °F 7 °F (1963)
Degree Days  
Heating Degree Days 5 23  
Month to date heating degree days 294 284  
Since 1 July heating degree days 1667 1481  
Growing Degree Days 15 (Base 50)    
Moisture  
Dew Point 30 °F    
Average Humidity 33    
Maximum Humidity 50    
Minimum Humidity 15    
Precipitation  
Precipitation 0.00 in 0.03 in 0.72 in (2007)
Month to date precipitation T 0.42  
Year to date precipitation T 0.42  
Snow  
Snow 0.00 in 0.00 in - ()
Month to date snowfall 0.0 0.6  
Since 1 July snowfall 0.7 1.9  
Snow Depth 0.00 in    
Sea Level Pressure  
Sea Level Pressure 29.77 in    
Wind  
Wind Speed 19 mph (SSW)    
Max Wind Speed 32 mph    
Max Gust Speed 40 mph    
Visibility 10 miles    
Events      
T = Trace of Precipitation, MM = Missing Value Source: NWS Daily Summary

Daily Weather History Graph

Daily Weather History Graph

Search for Another Location

Airport:

Trip Planner

Search our weather history database for the weather conditions in past years. The results will help you decide how hot, cold, wet, or windy it might be!

Date:

Astronomy

Jan. 12, 2014 Rise Set
Actual Time 7:39 AM CST 5:45 PM CST
Civil Twilight 7:12 AM CST 6:12 PM CST
Nautical Twilight 6:41 AM CST 6:43 PM CST
Astronomical Twilight 6:11 AM CST 7:13 PM CST
Moon 3:13 PM CST (1/12) 4:40 AM CST (1/12)
Length of Visible Light 11h 00m
Length of Day
10h 05m
Waxing Gibbous, 90% of the Moon is Illuminated
Jan 12
Waxing Gibbous
Jan 15
Full
Jan 23
Last Quarter
Jan 30
New
Feb 6
First Quarter

Hourly Weather History & Observations

Time (CST) Temp. Windchill Dew Point Humidity Pressure Visibility Wind Dir Wind Speed Gust Speed Precip Events Conditions
12:52 AM 43.0 °F 36.4 °F 21.9 °F 43% 29.94 in 10.0 mi South 12.7 mph - N/A   Clear
1:52 AM 39.0 °F 34.0 °F 23.0 °F 53% 29.92 in 10.0 mi SSW 6.9 mph - N/A   Clear
2:52 AM 42.1 °F 35.7 °F 24.1 °F 49% 29.91 in 10.0 mi SSW 11.5 mph - N/A   Clear
3:52 AM 43.0 °F 36.8 °F 24.1 °F 47% 29.89 in 10.0 mi SSW 11.5 mph - N/A   Clear
4:52 AM 48.0 °F - 25.0 °F 41% 29.87 in 10.0 mi SSW 15.0 mph - N/A   Clear
5:52 AM 52.0 °F - 26.1 °F 37% 29.85 in 10.0 mi SSW 19.6 mph - N/A   Clear
6:52 AM 50.0 °F - 26.1 °F 39% 29.85 in 10.0 mi SSW 17.3 mph - N/A   Clear
7:52 AM 50.0 °F - 26.1 °F 39% 29.85 in 10.0 mi SSW 18.4 mph - N/A   Clear
8:52 AM 55.0 °F - 27.0 °F 34% 29.86 in 10.0 mi SSW 21.9 mph 31.1 mph N/A   Clear
9:52 AM 59.0 °F - 28.9 °F 32% 29.86 in 10.0 mi SSW 23.0 mph 29.9 mph N/A   Clear
10:52 AM 64.0 °F - 30.0 °F 28% 29.83 in 10.0 mi SSW 24.2 mph 33.4 mph N/A   Clear
11:52 AM 70.0 °F - 30.9 °F 24% 29.78 in 10.0 mi SSW 20.7 mph 34.5 mph N/A   Clear
12:52 PM 72.0 °F - 28.9 °F 20% 29.73 in 10.0 mi SSW 25.3 mph 35.7 mph N/A   Clear
1:52 PM 75.9 °F - 28.9 °F 18% 29.69 in 10.0 mi SSW 24.2 mph 31.1 mph N/A   Clear
2:52 PM 79.0 °F - 27.0 °F 15% 29.65 in 10.0 mi SW 31.1 mph 40.3 mph N/A   Partly Cloudy
3:52 PM 80.1 °F - 28.0 °F 15% 29.63 in 10.0 mi SSW 28.8 mph 39.1 mph N/A   Partly Cloudy
4:52 PM 75.9 °F - 28.9 °F 18% 29.63 in 10.0 mi SSW 24.2 mph 31.1 mph N/A   Scattered Clouds
5:52 PM 71.1 °F - 32.0 °F 24% 29.63 in 10.0 mi SSW 20.7 mph 27.6 mph N/A   Clear
6:52 PM 69.1 °F - 32.0 °F 25% 29.64 in 10.0 mi South 17.3 mph - N/A   Clear
7:52 PM 68.0 °F - 37.0 °F 32% 29.65 in 10.0 mi SSW 23.0 mph 28.8 mph N/A   Clear
8:52 PM 66.0 °F - 39.0 °F 37% 29.68 in 10.0 mi SSW 13.8 mph - N/A   Clear
9:52 PM 61.0 °F - 39.9 °F 46% 29.69 in 10.0 mi SSW 11.5 mph - N/A   Clear
10:52 PM 62.1 °F - 39.9 °F 44% 29.73 in 10.0 mi West 17.3 mph - N/A   Clear
11:03 PM 59.0 °F - 37.4 °F 45% 29.76 in 10.0 mi West 13.8 mph - N/A   Clear
11:27 PM 57.2 °F - 30.2 °F 36% 29.77 in 10.0 mi North 18.4 mph 27.6 mph N/A   Clear
11:52 PM 55.0 °F - 30.0 °F 38% 29.77 in 10.0 mi North 20.7 mph 25.3 mph N/A   Clear